Regional Weather Roundup
Issued by NWS

Home | Current Version | Previous Version | Graphics & Text | Print | Product List | Glossary On
Versions: 1 2 3 4 5 6 7 8 9 10 11 12 13 14 15 16 17 18 19 20 21 22 23 24 25 26 27 28 29 30 31 32 33 34 35 36 37 38 39 40 41 42 43 44 45 46 47 48 49 50
000
ASUS43 KLSX 291807
RWRMO

WEATHER SUMMARY FOR MISSOURI
NATIONAL WEATHER SERVICE SPRINGFIELD MO
100 PM CDT WED JUL 29 2015

NOTE: "FAIR" INDICATES FEW OR NO CLOUDS BELOW 12,000 FEET WITH NO
       SIGNIFICANT WEATHER AND/OR OBSTRUCTIONS TO VISIBILITY.
       CURRENT SKY AND/OR WEATHER CONDITIONS ARE NOT AVAILABLE FOR
       CHILLICOTHE AND FARMINGTON.

MOZ001>031-035>038-043-044-053-054-291900-
...NORTHERN AND WESTERN MISSOURI...

CITY           SKY/WX    TMP DP  RH WIND       PRES   REMARKS
KANSAS CTY INT PTSUNNY   81  71  71 N7        30.16S
6HR MIN TEMP:  71; 6HR MAX TEMP:  81; 6HR PCP:  0.08;

KANSAS C DTWN  FAIR      83  72  69 VRB6      30.14S
6HR MIN TEMP:  73; 6HR MAX TEMP:  84; 6HR PCP:  0.02;

LEE`S SUMMIT   FAIR      82  68  62 N8        30.16R
6HR MIN TEMP:  72; 6HR MAX TEMP:  82; 6HR PCP:  0.03;

ST JOSEPH      FAIR      83  67  58 N6        30.15S
6HR MIN TEMP:  72; 6HR MAX TEMP:  84;

CHILLICOTHE      N/A     85  67  54 NE6       30.14S
6HR MIN TEMP:  73; 6HR MAX TEMP:  85;

KIRKSVILLE     FAIR      81  65  58 N9        30.14R
6HR MIN TEMP:  71; 6HR MAX TEMP:  81; 6HR PCP: TRACE;


$$
MOZ066>068-077>081-088>096-101>105-291900-
...SOUTHWEST MISSOURI...

CITY           SKY/WX    TMP DP  RH WIND       PRES   REMARKS
SPRINGFIELD      N/A     92  69  47 E3        30.08F HX  97
6HR MIN TEMP:  77; 6HR MAX TEMP:  92;

JOPLIN         FAIR      93  70  46 SE6       30.07F HX  99
6HR MIN TEMP:  76; 6HR MAX TEMP:  94;


$$
MOZ032>034-039>042-045>050-055>058-069>072-291900-
...CENTRAL MISSOURI...

CITY           SKY/WX    TMP DP  RH WIND       PRES   REMARKS
COLUMBIA       FAIR      83  66  56 N13       30.11F
6HR MIN TEMP:  73; 6HR MAX TEMP:  84;

JEFFERSON CITY FAIR      85  67  54 N10       30.09S
6HR MIN TEMP:  74; 6HR MAX TEMP:  85;

ROLLA          FAIR      83  70  64 N10       30.10S
6HR MIN TEMP:  76; 6HR MAX TEMP:  84;

SEDALIA        FAIR      85  69  58 NE10G17   30.12F
6HR MIN TEMP:  73; 6HR MAX TEMP:  85;

WHITEMAN AFB   PTSUNNY   86  68  55 NE14      30.11R
WARRENSBURG    FAIR      81  70  69 N8        30.13R
OSAGE BEACH    FAIR      84  70  61 NE7       30.11S

$$
MOZ051-052-059>065-291900-
...EAST CENTRAL MISSOURI...

CITY           SKY/WX    TMP DP  RH WIND       PRES   REMARKS
ST LOUIS INTL  PTSUNNY   88  71  57 N9        30.05F HX  94
6HR MIN TEMP:  82; 6HR MAX TEMP:  89;

SPIRIT OF STL  PTSUNNY   87  73  62 W7        30.04F HX  94
6HR MIN TEMP:  80; 6HR MAX TEMP:  87;

ST CHARLES     FAIR      86  74  67 W9        30.04S HX  94
6HR MIN TEMP:  79; 6HR MAX TEMP:  87;


$$
MOZ072>076-082>087-097>100-106>115-291900-
...SOUTH CENTRAL AND SOUTHEAST MISSOURI...

CITY           SKY/WX    TMP DP  RH WIND       PRES   REMARKS
CAPE GIRARDEAU FAIR      95  77  55 W7        29.99F HX 109
6HR MIN TEMP:  77; 6HR MAX TEMP:  95;

FARMINGTON     FAIR      90  77  66 NW12      30.08R HX 102
6HR MIN TEMP:  75; 6HR MAX TEMP:  91;

POPLAR BLUFF   FAIR      95  76  53 NW8       29.99F HX 108
6HR MIN TEMP:  80; 6HR MAX TEMP:  95;

WEST PLAINS    FAIR      92  70  48 W8        30.08F HX  97
6HR MIN TEMP:  77; 6HR MAX TEMP:  92;


$$


USA.gov is the U.S. government's official web portal to all federal, state and local government web resources and services.